This is the latest recevied weather packets stored in our database for station/object KM4CBK. If no packets are shown the sender has not sent any weather packets the latest 10 day(s).
| Time | Temp. | Humidity | Pressure | Rain* | Wind** | Luminosity | Snow |
|---|---|---|---|---|---|---|---|
| 1777554096 | 18.33° C | 99% | 1010.2 hPa | 0 mm | - | 35 W/m² | - |
| 1777553792 | 18.33° C | 99% | 1010.1 hPa | 0 mm | - | 40 W/m² | - |
| 1777553489 | 18.33° C | 99% | 1010.2 hPa | 0 mm | - | 34 W/m² | - |
| 1777553184 | 18.33° C | 99% | 1010.1 hPa | 0 mm | - | 34 W/m² | - |
| 1777552880 | 18.33° C | 99% | 1010.1 hPa | 0 mm | - | 42 W/m² | - |
| 1777552576 | 18.33° C | 99% | 1010.1 hPa | 0 mm | - | 45 W/m² | - |
| 1777552272 | 17.78° C | 99% | 1010.1 hPa | 0 mm | - | 48 W/m² | - |
| 1777551969 | 17.78° C | 99% | 1010.2 hPa | 0 mm | - | 39 W/m² | - |
| 1777551666 | 17.78° C | 99% | 1010.3 hPa | 0 mm | - | 29 W/m² | - |
| 1777551364 | 17.78° C | 99% | 1010.1 hPa | 0 mm | - | 17 W/m² | - |
| 1777551060 | 18.33° C | 99% | 1010.1 hPa | 0 mm | - | 20 W/m² | - |
| 1777550757 | 17.78° C | 99% | 1010.1 hPa | 0 mm | - | 23 W/m² | - |
| 1777550453 | 17.78° C | 99% | 1010.3 hPa | 0 mm | - | 17 W/m² | - |
| 1777550150 | 17.78° C | 99% | 1010.3 hPa | 0 mm | - | 13 W/m² | - |
| 1777549846 | 17.78° C | 99% | 1010 hPa | 0 mm | - | 11 W/m² | - |
| 1777549542 | 17.78° C | 99% | 1010.2 hPa | 0.51 mm | - | 4 W/m² | - |
| 1777549238 | 17.78° C | 99% | 1010.2 hPa | 0.51 mm | - | 5 W/m² | - |
| 1777548935 | 17.78° C | 99% | 1010 hPa | 0 mm | - | 1 W/m² | - |
| 1777548632 | 17.78° C | 99% | 1009.9 hPa | 0 mm | - | 1 W/m² | - |
| 1777548329 | 17.78° C | 99% | 1009.9 hPa | 0 mm | - | 0 W/m² | - |
| 1777548027 | 17.78° C | 99% | 1009.7 hPa | 0 mm | - | 0 W/m² | - |
| 1777547727 | 17.78° C | 99% | 1009.9 hPa | 0 mm | - | 0 W/m² | - |
| 1777547423 | 17.78° C | 99% | 1009.9 hPa | 0 mm | - | 0 W/m² | - |
| 1777547121 | 17.78° C | 99% | 1009.9 hPa | 0 mm | - | 0 W/m² | - |
| 1777546818 | 17.78° C | 98% | 1009.6 hPa | 0 mm | - | 0 W/m² | - |
* Rain latest hour (hover to see other rain measurements)
** Current wind speed in m/s (hover to see current wind gust speed)